Regional Weather Roundup
Issued by NWS

Home | Current Version | Previous Version | Text Only | Print | Product List | Glossary Off
Versions: 1 2 3 4 5 6 7 8 9 10 11 12 13 14 15 16 17 18 19 20 21 22 23 24 25 26 27 28 29 30 31 32 33 34 35 36 37 38 39 40 41 42 43 44 45 46 47 48 49 50

251
ASUS45 KPSR 120210
RWRAZ

ARIZONA HOURLY REGIONAL WEATHER ROUNDUP
NATIONAL WEATHER SERVICE PHOENIX AZ
700 PM MST THU FEB 11 2016

NOTE: FAIR INDICATES FEW OR NO CLOUDS BELOW 12,000 FEET WITH NO
SIGNIFICANT WEATHER AND/OR OBSTRUCTIONS TO VISIBILITY.

AZZ001>003-036-120300-
NORTHWEST ARIZONA

CITY           SKY/WX    TMP DP  RH WIND       PRES   REMARKS
BULLHEAD CITY  CLEAR     73  27  17 NE10      30.14R
KINGMAN        CLEAR     57  24  28 CALM      30.24R
$$

AZZ004>008-015-016-018-120300-
NORTH CENTRAL ARIZONA

CITY           SKY/WX    TMP DP  RH WIND       PRES   REMARKS
GRAND CANYON   CLEAR     41  24  51 NE3       30.40R
WILLIAMS       CLEAR     46  21  36 SE6       30.43R
PRESCOTT       CLEAR     58  19  22 S8        30.29R
FLAGSTAFF      CLEAR     40  18  41 CALM      30.41R
PAYSON         CLEAR     55  25  30 CALM      30.31R
PAGE           CLEAR     49  30  48 CALM      30.33S
$$

AZZ009>014-017-120300-
NORTHEAST ARIZONA

CITY           SKY/WX    TMP DP  RH WIND       PRES   REMARKS
WINSLOW        CLEAR     45  16  31 NW3       30.34R
SAINT JOHNS    PTCLDY    43  12  28 W3        30.34R
WINDOW ROCK    CLEAR     48   0  13 E8        30.39R
SHOW LOW       CLEAR     46  10  23 CALM      30.38S
$$

AZZ023-120300-
GREATER PHOENIX AREA

CITY           SKY/WX    TMP DP  RH WIND       PRES   REMARKS
PHOENIX        CLEAR     80  26  13 W6        30.09R
BUCKEYE        CLEAR     66  34  30 CALM      30.12S
GLENDALE       CLEAR     75  32  20 CALM      30.11R
LUKE AFB       CLEAR     72  36  27 CALM      30.09R
DEER VALLEY    CLEAR     71  30  21 CALM      30.11R
SCOTTSDALE     CLEAR     75  28  17 CALM      30.13R
MESA-FALCON    CLEAR    N/A N/A N/A N6        30.11R
MESA-GATEWAY   CLEAR    N/A N/A N/A CALM      30.12R
CHANDLER       CLEAR     73  30  20 SW6       30.11R
$$

AZZ027-028-120300-
SOUTHWEST MARICOPA COUNTY AND PINAL COUNTY

CITY           SKY/WX    TMP DP  RH WIND       PRES   REMARKS
CASA GRANDE    CLEAR     68  28  22 CALM      30.12S
GILA BEND      FAIR      72  35  25 CALM      30.08S
$$

AZZ503-504-507>509-120300-
SOUTHEAST ARIZONA

CITY           SKY/WX    TMP DP  RH WIND       PRES   REMARKS
TUCSON         PTCLDY    73  24  16 N6        30.17R
DAVIS-MONTHAN  CLEAR     69  28  20 NW8       30.15R
RYAN FIELD     CLEAR     72  30  21 NW8       30.16R
NOGALES        CLEAR     66  14  13 NE8       30.20R
SIERRA VISTA   CLEAR     59  13  16 SW9       30.27R
DOUGLAS        CLEAR     56   7  14 N5        30.23R
SAFFORD        CLEAR     57  21  24 N5        30.18R
$$

AZZ020-021-025-026-031-120300-
SOUTHWEST ARIZONA

CITY           SKY/WX    TMP DP  RH WIND       PRES   REMARKS
YUMA           CLEAR     77  27  15 CALM      30.08R
$$

CAZ031-033-041-043-047-048-061-120300-
SOUTHERN CALIFORNIA

CITY           SKY/WX    TMP DP  RH WIND       PRES   REMARKS
DOWNTOWN L.A.  CLEAR     70  36  28 CALM      30.08R
L.A. AIRPORT   PTCLDY    66  47  50 W8        30.08R
SAN DIEGO      PTCLDY    75  38  26 NW3       30.09R
BURBANK        CLEAR     76  36  23 VRB7      30.09R
ONTARIO        PTCLDY    75  30  19 W7        30.09R
RIVERSIDE      CLEAR     77  30  17 W5        30.09R
PALM SPRINGS   PTCLDY    76  32  20 CALM      30.11R
EL CENTRO NAS  CLEAR     76  26  15 CALM      30.09S
IMPERIAL       CLEAR     75  31  19 CALM      30.06S
BLYTHE         CLEAR     76  33  21 CALM      30.10R
NEEDLES        CLEAR     71  25  17 NW7       30.13R
$$

NVZ020-UTZ003-120300-
SOUTHERN NEVADA-UTAH

CITY           SKY/WX    TMP DP  RH WIND       PRES   REMARKS
LAS VEGAS      PTCLDY    69  23  17 CALM      30.17R
SALT LAKE CITY CLOUDY    30  27  88 W6        30.45S FOG     WCI  24
$$

NMZ009-TXZ055-120300-
NEW MEXICO-WEST TEXAS

CITY           SKY/WX    TMP DP  RH WIND       PRES   REMARKS
ALBUQUERQUE    PTCLDY    55  18  23 N9        30.31R
EL PASO        CLEAR     62  15  16 CALM      30.22R
$$


........................KEY........................
SKY/WX - SKY CONDITION/WEATHER
TMP    - TEMPERATURE IN FAHRENHEIT
DP     - DEW POINT IN FAHRENHEIT
RH     - RELATIVE HUMIDITY IN PERCENT
WIND   - DIRECTION AND SPEED IN MILES PER HOUR (MPH)
VRB    - VARIABLE WIND DIRECTION
PRES   - MEAN SEA LEVEL PRESSURE IN INCHES OF MERCURY
         F - FALLING PRESSURE   R - RISING PRESSURE
         S - STEADY PRESSURE
VSB    - VISIBILITY IN MILES
HX     - HEAT INDEX IN FAHRENHEIT
WCI    - WIND CHILL INDEX IN FAHRENHEIT
TC     - TEMPERATURE IN CELSIUS WHICH IS ALSO KNOWN AS
         TEMPERATURE IN CENTIGRADE
AFB    - AIR FORCE BASE
         LUKE AFB IS LUKE AIR FORCE BASE
         DAVIS-MONTHAN IS DAVIS-MONTHAN AIR FORCE BASE
NAS    - NAVAL AIR STATION
         EL CENTRO NAS IS EL CENTRO NAVAL AIR STATION
N/A    - NOT AVAILABLE





USA.gov is the U.S. government's official web portal to all federal, state and local government web resources and services.